Flag for Norway Weather past 2 weeks in Lillesand, Norway

Now
62 °F

Mild.


Feels Like: 62 °F
Forecast: 54 / 63 °F
Wind: 7 mph from Southwest

Location: Kristiansand / Kjevik

Current Time: Aug 28, 2015 at 7:14:12 PM

Latest Report: Aug 28, 2015 at 6:00 PM


Visibility: N/A

Pressure: 29.85 "Hg

Humidity: 67%

Dew point: 51 °F

Location of LillesandLocation

Historic Weather in Lillesand — Graph

°F

Lillesand temperature yesterday

Maximum temperature yesterday: 66 °F (at 4:00 PM)
Minimum temperature yesterday: 59 °F (at 10:00 PM)
Average temperature yesterday: 63 °F

Past Weeks' High & Low Weather Summary

 TemperatureHumidityPressure
High72 °F (Aug 21, 5:00 PM)98% (Aug 28, 3:00 AM)30.33 "Hg (Aug 28, 3:00 AM)
Low50 °F (Aug 28, 2:00 AM)47% (Aug 21, 5:00 PM)29.55 "Hg (Aug 27, 12:00 PM)
Average62 °F80%30.02 "Hg
* Reported Aug 13 5:00 PM — Aug 28 5:00 PM, Lillesand, Weather by CustomWeather, © 2015

Note: Actual official high and low records may vary slightly from our data, if they occured in-between our weather recording intervals... More about our weather records

Advertising

Lillesand weather history for previous 24 hours

 ConditionsComfort  
Time TempWeatherWind HumidityBarometerVisibility
5:00 PM
Fri, Aug 28
64 °FMild.8 mph63%29.85 "HgN/A
4:00 PM64 °FMild.7 mph62%29.84 "HgN/A
3:00 PM63 °FMild.6 mph73%29.83 "HgN/A
2:00 PM65 °FMild.8 mph59%29.81 "HgN/A
1:00 PM64 °FMild.8 mph59%29.79 "HgN/A
12:00 PM62 °FCool.6 mph71%29.78 "HgN/A
11:00 AM62 °FCool.6 mph72%29.76 "HgN/A
10:00 AM60 °FCool.6 mph78%29.74 "HgN/A
9:00 AM59 °FCool.6 mph82%29.72 "HgN/A
8:00 AM57 °FCool.5 mph87%29.70 "HgN/A
7:00 AM56 °FCool.5 mph91%29.68 "HgN/A
5:00 AM51 °FCool.2 mph98%29.66 "HgN/A
4:00 AM50 °FCool.2 mph97%29.66 "HgN/A
3:00 AM51 °FCool.2 mph98%29.65 "HgN/A
2:00 AM50 °FCool.2 mph97%29.65 "HgN/A
1:00 AM51 °FCool.2 mph95%29.65 "HgN/A
10:00 PM
Thu, Aug 27
59 °FCool.5 mph83%29.62 "HgN/A
8:00 PM61 °FCool.6 mph79%29.59 "HgN/A
7:00 PM62 °FCool.7 mph76%29.59 "HgN/A
Weather by CustomWeather, © 2015

See weather overviewHow to use our weather pages